Regional Weather Roundup
Issued by NWS

Home | Current Version | Previous Version | Graphics & Text | Print | Product List | Glossary On
Versions: 1 2 3 4 5 6 7 8 9 10 11 12 13 14 15 16 17 18 19 20 21 22 23 24 25 26 27
000
ASUS45 KBOU 261907
RWRCO

WEATHER ROUNDUP FOR COLORADO
NATIONAL WEATHER SERVICE DENVER/BOULDER CO
100 PM MDT FRI MAY 26 2017

NOTE: "FAIR" INDICATES FEW OR NO CLOUDS BELOW 12000 FEET WITH NO
SIGNIFICANT WEATHER AND/OR OBSTRUCTIONS TO VISIBILITY.

COZ001>005-013-030-031-262000-
...NORTHWEST COLORADO...

CITY           SKY/WX    TMP DP  RH WIND       PRES   REMARKS
CRAIG          FAIR      71  34  25 SW23G30   29.83F
HAYDEN         FAIR      66  30  26 SW23G33   29.85F
MEEKER         FAIR      71  28  20 S18G33    29.85F
RABBIT EARS PA NOT AVBL
STEAMBOAT SPGS NOT AVBL
WALDEN         NOT AVBL
$$

COZ006>008-011-262000-
...WEST CENTRAL VALLEYS...

CITY           SKY/WX    TMP DP  RH WIND       PRES   REMARKS
GRAND JUNCTION FAIR      79  20  11 S10G29    29.79F
MONTROSE       FAIR      74  19  12 W15G25    29.90F
EAGLE          MOSUNNY   70  21  16 S24G36    29.91F
RIFLE          FAIR      76  18  11 S20G28    29.82F
DELTA          FAIR      81  16   8 SW18G30   29.86F
NUCLA          FAIR      73  16  11 S16G33    29.96F
$$

COZ017>023-064>068-262000-
...SOUTHWEST COLORADO...

CITY           SKY/WX    TMP DP  RH WIND       PRES   REMARKS
DURANGO        FAIR      71  15  11 SW16G22   30.01F
CORTEZ         FAIR      74  15  10 S14G24    29.98F
PAGOSA SPRINGS FAIR      66   4   8 SW9G22    30.07F
TELLURIDE      FAIR      59  19  20 S8G22     30.11S
WOLF CREEK PAS NOT AVBL
$$

COZ009-010-012-014-032>034-037-058>063-262000-
...CENTRAL COLORADO...

CITY           SKY/WX    TMP DP  RH WIND       PRES   REMARKS
ASPEN          FAIR      65  25  22 S12       29.98F
BUENA VISTA    FAIR      66  26  22 SE24G30   30.00F
COPPER MTN     NOT AVBL
BERTHOUD PASS  NOT AVBL
COTTONWOOD PAS NOT AVBL
GUNNISON       FAIR      63  29  27 SW10      30.00F
KREMMLING      NOT AVBL
LEADVILLE      FAIR      53  19  26 SW15G28   30.09S
SALIDA         NOT AVBL
SUNLIGHT       NOT AVBL
WILKERSON PASS NOT AVBL
$$

COZ069>075-262000-
...SAN LUIS VALLEY/SANGRE DE CRISTO MOUNTAINS...

CITY           SKY/WX    TMP DP  RH WIND       PRES   REMARKS
ALAMOSA        FAIR      69  17  13 S21G35    30.02F
DEL NORTE      NOT AVBL
LA VETA PASS   NOT AVBL
SAGUACHE       NOT AVBL
$$

COZ035-036-038>040-262000-
...NORTHERN COLORADO FRONT RANGE...

CITY           SKY/WX    TMP DP  RH WIND       PRES   REMARKS
DENVER INTL AP PTSUNNY   61  49  64 E15       29.89F
DMNS CITY PARK   N/A     60  49  66 N17       29.89F
AURORA         PTSUNNY   67  44  42 E9        29.87F
FRONT RANGE AP NOT AVBL
ERIE MUNI ARPT NOT AVBL
BOULDER MUN AP NOT AVBL
CENTENNIAL     PTSUNNY   67  43  41 SE14G22   29.87F
BROOMFIELD     PTSUNNY   63  48  59 NW13      29.92F
FORT COLLINS   CLOUDY    60  46  59 S9G16     29.92F
LONGMONT       NOT AVBL
$$

COZ041-046-047-076>085-087-088-262000-
...PIKES PEAK/PALMER DIVIDE AND SOUTHERN FOOTHILLS...

CITY           SKY/WX    TMP DP  RH WIND       PRES   REMARKS
COLO. SPRINGS  FAIR      66  49  54 S20G31    29.96F
A. F. ACADEMY  FAIR      64  46  52 S17G29    29.95F
SCHRIEVER AFB  FAIR      64  46  52 S18G25    29.98F
CHEYENNE MTN   FAIR      61  45  56 SE25G36   29.93F
ELLICOTT       FAIR     N/A N/A N/A S16G28    29.97F
FALCON         FAIR      63  45  51 S23G32    30.00F
FORT CARSON    FAIR      66  47  49 S20       29.95F
LIMON          FAIR      69  50  50 S15G26    29.94F
MONUMENT HILL  NOT AVBL
CANON CITY     NOT AVBL
WALSENBURG     FAIR      73  45  35 SE17G24   29.93F
TRINIDAD       FAIR      77  29  17 SW13G20   29.93F
$$

COZ042>045-048>051-090-091-262000-
...NORTHEAST COLORADO...

CITY           SKY/WX    TMP DP  RH WIND       PRES   REMARKS
GREELEY ARPT   NOT AVBL
AKRON          FAIR      63  46  54 SE13      29.93F
BURLINGTON     FAIR      68  54  60 E8        29.94F
WRAY           FAIR      68  45  42 SE7       29.93F
YUMA           NOT AVBL
STERLING       NOT AVBL
HOLYOKE        NOT AVBL
FORT MORGAN    FAIR      65  44  46 E9        29.92F
$$

COZ086-089-092>099-262000-
...SOUTHEAST COLORADO...

CITY           SKY/WX    TMP DP  RH WIND       PRES   REMARKS
PUEBLO         FAIR      74  48  39 E15G23    29.89F
LA JUNTA       FAIR      76  48  37 SE14      29.91F
LAMAR          FAIR      78  46  32 E9        29.89F
SPRINGFIELD      N/A     75  46  35 E8        29.94F
$$




USA.gov is the U.S. government's official web portal to all federal, state and local government web resources and services.